When you browse on this site, cookies collect data to enhance your experience and personalize the content and advertising you see.
Visit our Privacy Policy to learn more. By continuing to use the site, you agree to this use of cookies and data.
  • En España
  • Lista de países
  • Para 7 días
  • Temperatura del agua
  • El tiempo en el mapa
  • Informadores
  • user-avatar
    Iniciar sesión

    Tiempo cada hora Öskemen

    Hoy, 29 Mayo, Viernes

    Tiempo Temperatura Precipitaciones Viento Presión Humedad
    00:00 +9°C° 0 mm 1 mps 732 mmHg 84%
    01:00 +8°C° 0 mm 1 mps 731 mmHg 86%
    02:00 +7°C° 0 mm 1 mps 731 mmHg 87%
    03:00 +7°C° 0 mm 1 mps 731 mmHg 89%
    04:00 +7°C° 0 mm 0 mps 731 mmHg 86%
    05:00 +7°C° 0 mm 0 mps 731 mmHg 84%
    06:00 +8°C° 0 mm 0 mps 731 mmHg 82%
    07:00 +11°C° 0 mm 1 mps 731 mmHg 75%
    08:00 +13°C° 0 mm 1 mps 731 mmHg 67%
    09:00 +15°C° 0 mm 1 mps 731 mmHg 59%
    10:00 +18°C° 0 mm 1 mps 730 mmHg 53%
    11:00 +19°C° 0 mm 2 mps 730 mmHg 47%
    12:00 +21°C° 0 mm 2 mps 730 mmHg 41%
    13:00 +21°C° 0 mm 2 mps 729 mmHg 39%
    14:00 +22°C° 0 mm 3 mps 729 mmHg 38%
    15:00 +24°C° 0 mm 3 mps 729 mmHg 36%
    16:00 +22°C° 0 mm 4 mps 729 mmHg 41%
    17:00 +22°C° 0 mm 4 mps 729 mmHg 46%
    18:00 +21°C° 0 mm 5 mps 729 mmHg 50%
    19:00 +18°C° 0 mm 4 mps 729 mmHg 57%
    20:00 +16°C° 0 mm 3 mps 729 mmHg 64%
    21:00 +14°C° 0 mm 1 mps 729 mmHg 71%
    22:00 +13°C° 0 mm 1 mps 728 mmHg 73%
    23:00 +12°C° 0 mm 1 mps 728 mmHg 74%

    Mañana, 30 Mayo, Sábado

    Tiempo Temperatura Precipitaciones Viento Presión Humedad
    00:00 +11°C° 0 mm 1 mps 728 mmHg 76%
    01:00 +11°C° 0 mm 1 mps 728 mmHg 77%
    02:00 +10°C° 0 mm 0 mps 727 mmHg 78%
    03:00 +9°C° 0 mm 0 mps 727 mmHg 79%
    04:00 +10°C° 0 mm 0 mps 727 mmHg 76%
    05:00 +11°C° 0 mm 0 mps 727 mmHg 74%
    06:00 +12°C° 0 mm 0 mps 727 mmHg 71%
    07:00 +15°C° 0 mm 1 mps 727 mmHg 65%
    08:00 +18°C° 0 mm 1 mps 728 mmHg 58%
    09:00 +20°C° 0 mm 1 mps 728 mmHg 52%
    10:00 +22°C° 0 mm 1 mps 728 mmHg 48%
    11:00 +24°C° 0 mm 2 mps 728 mmHg 44%
    12:00 +26°C° 0 mm 2 mps 728 mmHg 39%
    13:00 +26°C° 0 mm 3 mps 728 mmHg 40%
    14:00 +26°C° 0 mm 4 mps 728 mmHg 41%
    15:00 +27°C° 0 mm 6 mps 728 mmHg 43%
    16:00 +26°C° 0 mm 5 mps 728 mmHg 43%
    17:00 +25°C° 0 mm 5 mps 728 mmHg 44%
    18:00 +23°C° 0 mm 5 mps 728 mmHg 44%
    19:00 +20°C° 0 mm 4 mps 728 mmHg 50%
    20:00 +18°C° 0 mm 3 mps 728 mmHg 56%
    21:00 +16°C° 0 mm 1 mps 728 mmHg 62%
    22:00 +15°C° 0 mm 1 mps 729 mmHg 64%
    23:00 +14°C° 0 mm 1 mps 729 mmHg 67%

    Pasado mañana, 31 Mayo, Domingo

    Tiempo Temperatura Precipitaciones Viento Presión Humedad
    00:00 +13°C° 0 mm 1 mps 729 mmHg 69%
    01:00 +12°C° 0 mm 1 mps 729 mmHg 72%
    02:00 +11°C° 0 mm 0 mps 729 mmHg 74%
    03:00 +10°C° 0 mm 0 mps 729 mmHg 77%
    04:00 +11°C° 0 mm 0 mps 729 mmHg 75%
    05:00 +13°C° 0 mm 1 mps 729 mmHg 73%
    06:00 +14°C° 0 mm 1 mps 729 mmHg 71%
    07:00 +16°C° 0 mm 1 mps 730 mmHg 65%
    08:00 +19°C° 0 mm 1 mps 730 mmHg 59%
    09:00 +21°C° 0 mm 1 mps 730 mmHg 52%
    10:00 +21°C° 0 mm 2 mps 730 mmHg 48%
    11:00 +23°C° 0 mm 2 mps 730 mmHg 43%
    12:00 +24°C° 0 mm 3 mps 730 mmHg 39%
    13:00 +25°C° 0 mm 3 mps 730 mmHg 38%
    14:00 +25°C° 0 mm 3 mps 729 mmHg 37%
    15:00 +26°C° 0 mm 3 mps 729 mmHg 36%
    16:00 +26°C° 0 mm 2 mps 729 mmHg 38%
    17:00 +26°C° 0 mm 2 mps 729 mmHg 39%
    18:00 +26°C° 0 mm 2 mps 729 mmHg 41%
    19:00 +23°C° 0 mm 1 mps 729 mmHg 46%
    20:00 +21°C° 0 mm 1 mps 729 mmHg 51%
    21:00 +18°C° 0 mm 1 mps 729 mmHg 57%
    22:00 +18°C° 0 mm 1 mps 729 mmHg 58%
    23:00 +16°C° 0 mm 1 mps 729 mmHg 60%

    1 Junio, Lunes

    Tiempo Temperatura Precipitaciones Viento Presión Humedad
    00:00 +15°C° 0 mm 2 mps 729 mmHg 62%
    01:00 +15°C° 0 mm 2 mps 728 mmHg 63%
    02:00 +15°C° 0 mm 2 mps 728 mmHg 63%
    03:00 +14°C° 0 mm 2 mps 728 mmHg 64%
    04:00 +15°C° 0 mm 2 mps 728 mmHg 65%
    05:00 +15°C° 0 mm 2 mps 727 mmHg 65%
    06:00 +16°C° 0 mm 2 mps 727 mmHg 66%
    07:00 +18°C° 0 mm 2 mps 727 mmHg 61%
    08:00 +20°C° 0 mm 3 mps 727 mmHg 55%
    09:00 +24°C° 0 mm 3 mps 727 mmHg 50%
    10:00 +26°C° 0 mm 4 mps 727 mmHg 46%
    11:00 +28°C° 0 mm 4 mps 727 mmHg 42%
    12:00 +29°C° 0 mm 4 mps 727 mmHg 39%
    13:00 +30°C° 0 mm 4 mps 726 mmHg 37%
    14:00 +32°C° 0 mm 4 mps 726 mmHg 34%
    15:00 +34°C° 0 mm 4 mps 726 mmHg 32%
    16:00 +33°C° 0 mm 3 mps 725 mmHg 37%
    17:00 +31°C° 0 mm 3 mps 725 mmHg 42%
    18:00 +30°C° 0 mm 2 mps 725 mmHg 47%
    19:00 +28°C° 0 mm 3 mps 725 mmHg 51%
    20:00 +25°C° 0 mm 3 mps 725 mmHg 56%
    21:00 +22°C° 0 mm 3 mps 725 mmHg 60%
    22:00 +21°C° 0 mm 2 mps 725 mmHg 63%
    23:00 +21°C° 0 mm 1 mps 725 mmHg 66%

    2 Junio, Martes

    Tiempo Temperatura Precipitaciones Viento Presión Humedad
    00:00 +20°C° 0 mm 1 mps 725 mmHg 68%
    01:00 +20°C° 0 mm 1 mps 725 mmHg 70%
    02:00 +19°C° 0 mm 1 mps 725 mmHg 71%
    03:00 +19°C° 0 mm 1 mps 724 mmHg 72%
    04:00 +19°C° 0.1 mm 1 mps 724 mmHg 73%
    05:00 +20°C° 0.1 mm 1 mps 724 mmHg 74%
    06:00 +18°C° 0.1 mm 0 mps 724 mmHg 76%
    07:00 +21°C° 0.2 mm 1 mps 725 mmHg 73%
    08:00 +22°C° 0.2 mm 1 mps 725 mmHg 70%
    09:00 +24°C° 0.2 mm 2 mps 725 mmHg 67%
    10:00 +25°C° 0.1 mm 2 mps 725 mmHg 63%
    11:00 +26°C° 0.1 mm 3 mps 726 mmHg 58%
    12:00 +27°C° 0.1 mm 3 mps 726 mmHg 54%
    13:00 +28°C° 0.4 mm 3 mps 726 mmHg 53%
    14:00 +28°C° 0.4 mm 3 mps 726 mmHg 51%
    15:00 +28°C° 0.4 mm 3 mps 726 mmHg 50%
    16:00 +28°C° 0.1 mm 4 mps 726 mmHg 52%
    17:00 +27°C° 0.1 mm 4 mps 726 mmHg 55%
    18:00 +27°C° 0.1 mm 4 mps 726 mmHg 57%
    19:00 +25°C° 0 mm 3 mps 727 mmHg 63%
    20:00 +23°C° 0 mm 2 mps 727 mmHg 68%
    21:00 +21°C° 0 mm 1 mps 727 mmHg 74%
    22:00 +20°C° 0 mm 1 mps 727 mmHg 76%
    23:00 +19°C° 0 mm 1 mps 728 mmHg 78%

    3 Junio, Miércoles

    Tiempo Temperatura Precipitaciones Viento Presión Humedad
    00:00 +18°C° 0 mm 1 mps 728 mmHg 80%
    01:00 +16°C° 0 mm 1 mps 728 mmHg 81%
    02:00 +16°C° 0 mm 1 mps 728 mmHg 81%
    03:00 +15°C° 0 mm 1 mps 728 mmHg 82%
    04:00 +16°C° 0 mm 1 mps 728 mmHg 79%
    05:00 +18°C° 0 mm 1 mps 728 mmHg 77%
    06:00 +19°C° 0 mm 1 mps 728 mmHg 74%
    07:00 +21°C° 0 mm 1 mps 728 mmHg 67%
    08:00 +23°C° 0 mm 1 mps 728 mmHg 59%
    09:00 +26°C° 0 mm 1 mps 728 mmHg 51%
    10:00 +27°C° 0 mm 2 mps 728 mmHg 44%
    11:00 +28°C° 0 mm 2 mps 728 mmHg 38%
    12:00 +30°C° 0 mm 2 mps 727 mmHg 31%
    13:00 +30°C° 0 mm 2 mps 727 mmHg 30%
    14:00 +31°C° 0 mm 2 mps 727 mmHg 29%
    15:00 +31°C° 0 mm 2 mps 726 mmHg 28%
    16:00 +30°C° 0 mm 3 mps 726 mmHg 34%
    17:00 +29°C° 0 mm 3 mps 725 mmHg 41%
    18:00 +29°C° 0 mm 4 mps 725 mmHg 47%
    19:00 +27°C° 0 mm 4 mps 725 mmHg 48%
    20:00 +26°C° 0 mm 4 mps 724 mmHg 49%
    21:00 +23°C° 0 mm 5 mps 724 mmHg 50%
    22:00 +22°C° 0.3 mm 4 mps 724 mmHg 58%
    23:00 +20°C° 0.3 mm 3 mps 723 mmHg 66%
    Mostrar más